Home > Weather > Laredo > Past weeks

Flag for USA Past Weather in Laredo, Texas, USA — Yesterday and Last 2 Weeks

Now
82 °F

Passing clouds.


Feels Like: 88 °F
Forecast: 79 / 96 °F
Wind: 14 mph from Southeast

Location: Laredo International Airport

Current Time: May 25, 2016 at 2:16:24 AM

Latest Report: May 25, 2016 at 12:56 AM


Visibility: 10 mi

Pressure: 29.90 "Hg

Humidity: 77%

Dew Point: 74 °F

Location of LaredoLocation

Past Weather in Laredo — Graph

°F

Laredo Temperature Yesterday

Maximum temperature yesterday: 92 °F (at 4:56 PM)
Minimum temperature yesterday: 77 °F (at 6:56 AM)
Average temperature yesterday: 84 °F

High & Low Weather Summary for the Past Weeks

 TemperatureHumidityPressure
High100 °F (May 10, 4:56 PM)97% (May 15, 1:56 AM)30.16 "Hg (May 15, 1:56 AM)
Low66 °F (May 19, 11:56 AM)35% (May 13, 6:56 PM)29.70 "Hg (May 23, 5:56 PM)
Average80 °F76%29.91 "Hg
* Reported May 10 12:56 AM — May 25 12:56 AM, Laredo, Weather by CustomWeather, © 2016

Note: Actual official high and low records may vary slightly from our data, if they occured in-between our weather recording intervals... More about our weather records

Advertising

Laredo Weather History for the Previous 24 Hours

Scroll right to see more
 ConditionsComfort  
Time TempWeatherWind HumidityBarometerVisibility
12:56 AM
Wed, May 25
82 °FPassing clouds.14 mph77%29.90 "Hg10 mi
11:56 PM
Tue, May 24
84 °FClear.16 mph77%29.90 "Hg10 mi
10:56 PM85 °FPassing clouds.14 mph75%29.89 "Hg10 mi
9:56 PM86 °FOvercast.12 mph72%29.88 "Hg10 mi
8:56 PM88 °FOvercast.14 mph67%29.87 "Hg10 mi
7:56 PM90 °FPartly sunny.14 mph66%29.85 "Hg8 mi
5:56 PM92 °FScattered clouds.9 mph60%29.83 "Hg8 mi
4:56 PM92 °FPartly sunny.12 mph62%29.84 "Hg6 mi
3:56 PM91 °FBroken clouds.12 mph64%29.85 "Hg9 mi
2:56 PM89 °FMostly cloudy.9 mph68%29.87 "Hg8 mi
1:56 PM87 °FMostly cloudy.9 mph72%29.88 "Hg8 mi
12:56 PM85 °FOvercast.10 mph75%29.89 "Hg8 mi
11:56 AM84 °FMore clouds than sun.12 mph77%29.89 "Hg10 mi
10:56 AM83 °FOvercast.13 mph77%29.88 "Hg9 mi
9:56 AM82 °FMostly cloudy.15 mph79%29.87 "Hg9 mi
8:56 AM80 °FOvercast.12 mph85%29.87 "Hg9 mi
7:56 AM79 °FMostly cloudy.9 mph88%29.86 "Hg9 mi
6:56 AM77 °FOvercast.7 mph90%29.85 "Hg9 mi
5:56 AM78 °FOvercast.5 mph87%29.84 "Hg10 mi
4:56 AM78 °FPassing clouds.6 mph87%29.82 "Hg10 mi
3:56 AM78 °FPassing clouds.16 mph84%29.76 "Hg10 mi
2:56 AM78 °FPassing clouds.20 mph84%29.74 "Hg10 mi
Weather by CustomWeather, © 2016

See weather overviewHow to use our weather pages